(297448) = 2000 SW240

Discovered at Socorro on 2000-09-27 by LINEAR.

Orbit

Orbit type: Hungaria

Note: WebGL enabled browser required.

epoch2024-03-31.0
epoch JD2460400.5
perihelion date2022-11-03.34888
perihelion JD2459886.84888
argument of perihelion (°)177.87057
ascending node (°)219.82622
inclination (°)20.61948
eccentricity0.0767321
perihelion distance (AU)1.8089990
Tisserand w.r.t. Jupiter3.8
ΔV w.r.t. Earth (km/sec)10.6
semimajor axis (AU)1.9593435
mean anomaly (°)184.58917
mean daily motion (°/day)0.35936680
aphelion distance (AU)2.110
period (years)2.74
P-vector [x]0.78973336
P-vector [y]0.55749654
P-vector [z]0.25596645
Q-vector [x]-0.57048293
Q-vector [y]0.82084258
Q-vector [z]-0.02768915
absolute magnitude17.32
phase slope0.15
uncertainty0
referenceMPEC 2024-F50
observations used638
oppositions14
arc length (days)8574
first opposition used2000
last opposition used2024
residual rms (arc-secs)0.66
perturbers coarse indicatorM-v
perturbers precise indicator003Ek
first observation date used2000-09-27.0
last observation date used2024-03-19.0
computer nameMPCLINUX
JD of orbit computation2456465.497430
perihelion JD uncertainty (days)1.1303E-04
argument of perihelion uncertainty (°)4.2404E-05
ascending node uncertainty (°)1.4952E-05
inclination uncertainty (°)1.7434E-05
eccentricity uncertainty 1.5720E-07
perihelion distance uncertainty (AU)3.0796E-07
Minimum Orbit Intersection Distances (in AU)
for orbit epoch: 2460400.5, reference: E2024-F50
Mercury1.48466
Venus1.08628
Earth0.81714
Mars0.35182
Jupiter3.15913
Saturn7.25467
Uranus16.454
Neptune28.0168

Observations

649 total observations over interval: 2000 09 27.25952 – 2024 03 19.628053
These data are available for download (format description).

Date (UT) J2000 RA J2000 Dec Magn Location Ref
2000 09 27.25952 01 08 19.21 +28 11 09.8 19.0   704 – Lincoln Laboratory ETS, New Mexico MPS 20183
2000 09 27.27408 01 08 18.52 +28 10 55.2 19.6   704 – Lincoln Laboratory ETS, New Mexico MPS 20183
2000 09 27.29018 01 08 17.85 +28 10 39.3 19.4   704 – Lincoln Laboratory ETS, New Mexico MPS 20183
2000 09 27.30474 01 08 17.12 +28 10 25.4 19.4   704 – Lincoln Laboratory ETS, New Mexico MPS 20183
2000 09 27.32036 01 08 16.43 +28 10 10.7 19.3   704 – Lincoln Laboratory ETS, New Mexico MPS 20183
2000 10 04.34031 01 02 59.21 +26 01 16.2 18.5   704 – Lincoln Laboratory ETS, New Mexico MPS 20183
2000 10 04.35577 01 02 58.50 +26 00 57.3 19.0   704 – Lincoln Laboratory ETS, New Mexico MPS 20183
2000 10 04.37077 01 02 57.69 +26 00 38.9 19.3   704 – Lincoln Laboratory ETS, New Mexico MPS 20183
2000 10 04.38602 01 02 56.96 +26 00 20.0 19.2   704 – Lincoln Laboratory ETS, New Mexico MPS 20183
2000 10 04.40109 01 02 56.08 +26 00 01.3 18.3   704 – Lincoln Laboratory ETS, New Mexico MPS 20183
2000 10 06.26307 01 01 27.22 +25 21 16.4 18.9   704 – Lincoln Laboratory ETS, New Mexico MPS 20183
2000 10 06.27844 01 01 26.43 +25 20 56.7 18.9   704 – Lincoln Laboratory ETS, New Mexico MPS 20183
2000 10 06.29351 01 01 25.58 +25 20 37.3 19.3   704 – Lincoln Laboratory ETS, New Mexico MPS 20183
2000 10 06.30940 01 01 24.77 +25 20 16.6 19.1   704 – Lincoln Laboratory ETS, New Mexico MPS 20183
2000 10 06.32495 01 01 24.05 +25 19 58.0 19.5   704 – Lincoln Laboratory ETS, New Mexico MPS 20183
2000 10 25.23450 00 47 30.52 +17 37 09.8 18.5   704 – Lincoln Laboratory ETS, New Mexico MPS 21365
2000 10 25.24855 00 47 29.98 +17 36 46.9 19.0   704 – Lincoln Laboratory ETS, New Mexico MPS 21365
2000 10 25.26244 00 47 29.44 +17 36 26.8 18.8   704 – Lincoln Laboratory ETS, New Mexico MPS 21365
2000 11 01.20819 00 44 16.76 +14 38 48.9 18.8   704 – Lincoln Laboratory ETS, New Mexico MPS 21365
2000 11 01.22178 00 44 16.48 +14 38 28.3 18.8   704 – Lincoln Laboratory ETS, New Mexico MPS 21365
2000 11 01.23550 00 44 16.04 +14 38 08.1 18.6   704 – Lincoln Laboratory ETS, New Mexico MPS 21365
2000 11 01.24912 00 44 15.67 +14 37 47.7 19.2   704 – Lincoln Laboratory ETS, New Mexico MPS 21365
2000 11 01.26273 00 44 15.35 +14 37 25.6 18.9   704 – Lincoln Laboratory ETS, New Mexico MPS 21365
2000 11 03.14854 00 43 39.78 +13 50 52.7 19.0   704 – Lincoln Laboratory ETS, New Mexico MPS 21365
2000 11 03.16222 00 43 39.47 +13 50 31.8 19.4   704 – Lincoln Laboratory ETS, New Mexico MPS 21365
2000 11 03.19122 00 43 38.88 +13 49 50.0 19.3   704 – Lincoln Laboratory ETS, New Mexico MPS 21365
2000 11 03.20493 00 43 38.60 +13 49 30.1 19.1   704 – Lincoln Laboratory ETS, New Mexico MPS 21365
2000 11 23.08705 00 45 03.35 +07 01 25.7 19.9 V 691 – Steward Observatory, Kitt Peak-Spacewatch MPS 22547
2000 11 23.10834 00 45 03.81 +07 01 05.4 20.3 V 691 – Steward Observatory, Kitt Peak-Spacewatch MPS 22547
2000 11 23.12940 00 45 04.26 +07 00 45.6 20.0 V 691 – Steward Observatory, Kitt Peak-Spacewatch MPS 22547
2002 04 30.30453 15 02 37.09 -14 25 31.4 19.9   644 – Palomar Mountain/NEAT MPS 96926
2002 04 30.38651 15 02 31.78 -14 24 04.7 19.4   644 – Palomar Mountain/NEAT MPS 96926
2002 04 30.45251 15 02 27.49 -14 22 54.3 20.6   644 – Palomar Mountain/NEAT MPS 96926
2003 11 29.31680 05 52 38.80 -02 05 55.9 19.3   704 – Lincoln Laboratory ETS, New Mexico MPS 96926
2003 11 29.32949 05 52 38.06 -02 06 09.6 19.4   704 – Lincoln Laboratory ETS, New Mexico MPS 96926
2003 11 29.34228 05 52 37.23 -02 06 24.1 19.6   704 – Lincoln Laboratory ETS, New Mexico MPS 96926
2003 11 29.35502 05 52 36.44 -02 06 38.0 19.5   704 – Lincoln Laboratory ETS, New Mexico MPS 96926
2003 11 29.36785 05 52 35.67 -02 06 53.1 19.2   704 – Lincoln Laboratory ETS, New Mexico MPS 96926
2004 01 15.29690 05 07 12.39 -08 17 57.7 19.7   644 – Palomar Mountain/NEAT MPS 96926
2004 01 15.31880 05 07 11.82 -08 17 53.2 19.5   644 – Palomar Mountain/NEAT MPS 96926
2004 01 15.34008 05 07 11.28 -08 17 49.3 19.8   644 – Palomar Mountain/NEAT MPS 96926
2008 10 01.17494 20 40 40.81 +12 44 36.4 20.4   704 – Lincoln Laboratory ETS, New Mexico MPS 257739
2008 10 01.18732 20 40 41.09 +12 44 23.2 20.2   704 – Lincoln Laboratory ETS, New Mexico MPS 257739
2008 10 01.19977 20 40 41.57 +12 44 09.6 20.3   704 – Lincoln Laboratory ETS, New Mexico MPS 257739
2008 10 01.21246 20 40 41.99 +12 43 55.8 20.4   704 – Lincoln Laboratory ETS, New Mexico MPS 257739
2010 02 26.536272 12 33 58.606 -28 16 19.04 20.40 i F51 – Pan-STARRS 1, Haleakala MPS 319224
2010 02 26.544476 12 33 58.350 -28 16 17.46 20.77 i F51 – Pan-STARRS 1, Haleakala MPS 319224
2011 09 24.42830 01 52 34.96 +28 53 50.2 18.9 V 703 – Catalina Sky Survey MPS 392569
2011 09 24.43615 01 52 34.82 +28 53 44.8 19.1 V 703 – Catalina Sky Survey MPS 392569
2011 09 24.44406 01 52 34.57 +28 53 39.1 18.9 V 703 – Catalina Sky Survey MPS 392569
2011 09 24.45186 01 52 34.42 +28 53 33.1 18.7 V 703 – Catalina Sky Survey MPS 392569
2011 10 07.80340 01 45 01.01 +25 18 42.9 18.6 R D29 – Purple Mountain Observatory, XuYi Station MPS 394180
2011 10 07.81734 01 45 00.33 +25 18 26.1 19.0 R D29 – Purple Mountain Observatory, XuYi Station MPS 394180
2011 10 07.83126 01 44 59.68 +25 18 09.6 19.1 R D29 – Purple Mountain Observatory, XuYi Station MPS 394180
2011 10 07.84517 01 44 59.06 +25 17 53.1 19.4 R D29 – Purple Mountain Observatory, XuYi Station MPS 394180
2011 10 22.31915 01 33 10.38 +19 45 54.7 19.1   704 – Lincoln Laboratory ETS, New Mexico MPS 398070
2011 10 22.33133 01 33 09.79 +19 45 36.2 19.3   704 – Lincoln Laboratory ETS, New Mexico MPS 398070
2011 10 22.34330 01 33 09.10 +19 45 18.2 19.2   704 – Lincoln Laboratory ETS, New Mexico MPS 398070
2011 10 22.36731 01 33 07.80 +19 44 41.3 19.2   704 – Lincoln Laboratory ETS, New Mexico MPS 398070
2011 10 28.23642 01 28 27.01 +17 13 40.0 18.2 V 703 – Catalina Sky Survey MPS 398070
2011 10 28.24553 01 28 26.61 +17 13 25.5 18.7 V 703 – Catalina Sky Survey MPS 398070
2011 10 28.25469 01 28 26.18 +17 13 12.2 18.7 V 703 – Catalina Sky Survey MPS 398070
2011 10 28.26390 01 28 25.68 +17 12 57.4 18.7 V 703 – Catalina Sky Survey MPS 398070
2011 10 31.26573 01 26 14.88 +15 55 11.7 19.2   704 – Lincoln Laboratory ETS, New Mexico MPS 407139
2011 10 31.27805 01 26 14.50 +15 54 52.6 19.6   704 – Lincoln Laboratory ETS, New Mexico MPS 407139
2011 10 31.29038 01 26 13.81 +15 54 33.4 19.3   704 – Lincoln Laboratory ETS, New Mexico MPS 407139
2011 10 31.30281 01 26 13.28 +15 54 13.3 19.5   704 – Lincoln Laboratory ETS, New Mexico MPS 407139
2011 10 31.31499 01 26 12.71 +15 53 55.5 19.7   704 – Lincoln Laboratory ETS, New Mexico MPS 407139
2011 11 01.10473 01 25 41.10 +15 33 31.5 19.3 V 691 – Steward Observatory, Kitt Peak-Spacewatch MPS 399894
2011 11 01.14026 01 25 39.58 +15 32 37.2 19.3 V 691 – Steward Observatory, Kitt Peak-Spacewatch MPS 399894
2011 11 01.15798 01 25 38.81 +15 32 09.9 19.2 V 691 – Steward Observatory, Kitt Peak-Spacewatch MPS 399894
2011 11 01.90888 01 25 08.60 +15 12 50.1 17.9 R 106 – Crni Vrh MPS 399894
2011 11 01.92061 01 25 08.12 +15 12 32.2 17.6 R 106 – Crni Vrh MPS 399894
2011 11 01.93233 01 25 07.62 +15 12 14.4 17.6 R 106 – Crni Vrh MPS 399894
2011 11 01.94405 01 25 07.10 +15 11 56.2 17.7 R 106 – Crni Vrh MPS 399894
2011 11 17.24008 01 18 37.87 +09 11 13.1 19.1 V G96 – Mt. Lemmon Survey MPS 401006
2011 11 17.24689 01 18 37.80 +09 11 04.5 18.9 V G96 – Mt. Lemmon Survey MPS 401006
2011 11 17.25387 01 18 37.69 +09 10 55.9 19.0 V G96 – Mt. Lemmon Survey MPS 401006
2011 11 17.26083 01 18 37.58 +09 10 47.3 19.1 V G96 – Mt. Lemmon Survey MPS 401006
2011 11 19.25816 01 18 21.50 +08 30 20.9 19.4   704 – Lincoln Laboratory ETS, New Mexico MPS 402247
2011 11 19.27085 01 18 21.40 +08 30 06.5 19.4   704 – Lincoln Laboratory ETS, New Mexico MPS 402247
2011 11 19.29622 01 18 21.25 +08 29 36.7 19.2   704 – Lincoln Laboratory ETS, New Mexico MPS 402247
2011 11 23.19094 01 18 15.33 +07 16 20.2 19.3 V G96 – Mt. Lemmon Survey MPS 402247
2011 11 23.19635 01 18 15.33 +07 16 14.3 19.4 V G96 – Mt. Lemmon Survey MPS 402247
2011 11 23.20165 01 18 15.33 +07 16 08.7 19.4 V G96 – Mt. Lemmon Survey MPS 402247
2011 11 23.20694 01 18 15.33 +07 16 03.0 19.4 V G96 – Mt. Lemmon Survey MPS 402247
